• In Uzbekistan
  • List of Countries
  • For 7 days
  • Water Temperature
  • Satellite Maps
  • Weather Map
  • Weather Widgets
  • user-avatar
    Login

    Hourly Weather Kecskemet

    Today, 20 October, Friday

    Time Temperature Precipitation Wind Pressure Humidity
    00:00 +13°C° 0 mm 1 mps 752 mmHg 70%
    01:00 +13°C° 0 mm 1 mps 752 mmHg 72%
    02:00 +13°C° 0 mm 1 mps 752 mmHg 74%
    03:00 +12°C° 0 mm 1 mps 752 mmHg 76%
    04:00 +12°C° 0 mm 1 mps 752 mmHg 78%
    05:00 +12°C° 0 mm 1 mps 752 mmHg 77%
    06:00 +11°C° 0 mm 0 mps 752 mmHg 77%
    07:00 +11°C° 0 mm 0 mps 753 mmHg 76%
    08:00 +13°C° 0 mm 0 mps 753 mmHg 68%
    09:00 +16°C° 0 mm 1 mps 753 mmHg 59%
    10:00 +19°C° 0 mm 1 mps 753 mmHg 50%
    11:00 +21°C° 0 mm 1 mps 753 mmHg 46%
    12:00 +22°C° 0 mm 1 mps 753 mmHg 41%
    13:00 +23°C° 0 mm 2 mps 753 mmHg 36%
    14:00 +23°C° 0 mm 1 mps 753 mmHg 37%
    15:00 +22°C° 0 mm 1 mps 753 mmHg 38%
    16:00 +20°C° 0 mm 0 mps 752 mmHg 39%
    17:00 +21°C° 0 mm 1 mps 753 mmHg 42%
    18:00 +19°C° 0 mm 1 mps 753 mmHg 44%
    19:00 +18°C° 0 mm 1 mps 753 mmHg 47%
    20:00 +18°C° 0 mm 1 mps 753 mmHg 49%
    21:00 +16°C° 0 mm 1 mps 753 mmHg 51%
    22:00 +16°C° 0 mm 1 mps 754 mmHg 52%
    23:00 +15°C° 0 mm 1 mps 754 mmHg 54%

    Tomorrow, 21 October, Saturday

    Time Temperature Precipitation Wind Pressure Humidity
    00:00 +15°C° 0 mm 1 mps 754 mmHg 56%
    01:00 +14°C° 0 mm 1 mps 754 mmHg 57%
    02:00 +14°C° 0 mm 1 mps 754 mmHg 59%
    03:00 +14°C° 0 mm 1 mps 753 mmHg 61%
    04:00 +13°C° 0 mm 1 mps 753 mmHg 64%
    05:00 +13°C° 0 mm 1 mps 753 mmHg 65%
    06:00 +13°C° 0 mm 1 mps 754 mmHg 67%
    07:00 +13°C° 0 mm 1 mps 754 mmHg 69%
    08:00 +15°C° 0 mm 1 mps 754 mmHg 63%
    09:00 +18°C° 0 mm 1 mps 754 mmHg 57%
    10:00 +19°C° 0 mm 1 mps 754 mmHg 52%
    11:00 +19°C° 0 mm 2 mps 754 mmHg 49%
    12:00 +20°C° 0 mm 2 mps 753 mmHg 46%
    13:00 +21°C° 0 mm 2 mps 753 mmHg 44%
    14:00 +20°C° 0 mm 2 mps 753 mmHg 45%
    15:00 +20°C° 0 mm 2 mps 752 mmHg 46%
    16:00 +20°C° 0 mm 2 mps 752 mmHg 47%
    17:00 +20°C° 0 mm 1 mps 752 mmHg 50%
    18:00 +18°C° 0 mm 1 mps 752 mmHg 54%
    19:00 +15°C° 0 mm 0 mps 752 mmHg 58%
    20:00 +15°C° 0 mm 0 mps 752 mmHg 59%
    21:00 +14°C° 0 mm 0 mps 752 mmHg 60%
    22:00 +14°C° 0 mm 0 mps 752 mmHg 62%
    23:00 +13°C° 0 mm 0 mps 752 mmHg 63%

    Day after tomorrow, 22 October, Sunday

    Time Temperature Precipitation Wind Pressure Humidity
    00:00 +13°C° 0 mm 0 mps 752 mmHg 64%
    01:00 +13°C° 0 mm 0 mps 752 mmHg 65%
    02:00 +13°C° 0 mm 0 mps 752 mmHg 67%
    03:00 +12°C° 0 mm 0 mps 752 mmHg 68%
    04:00 +12°C° 0 mm 0 mps 751 mmHg 69%
    05:00 +12°C° 0 mm 0 mps 751 mmHg 69%
    06:00 +12°C° 0 mm 0 mps 751 mmHg 69%
    07:00 +12°C° 0 mm 0 mps 751 mmHg 68%
    08:00 +14°C° 0 mm 0 mps 751 mmHg 63%
    09:00 +18°C° 0 mm 1 mps 751 mmHg 57%
    10:00 +19°C° 0 mm 1 mps 751 mmHg 51%
    11:00 +20°C° 0 mm 1 mps 751 mmHg 48%
    12:00 +21°C° 0 mm 1 mps 750 mmHg 46%
    13:00 +22°C° 0 mm 1 mps 750 mmHg 43%
    14:00 +21°C° 0 mm 1 mps 749 mmHg 45%
    15:00 +21°C° 0 mm 1 mps 749 mmHg 46%
    16:00 +20°C° 0 mm 1 mps 748 mmHg 47%
    17:00 +18°C° 0 mm 2 mps 748 mmHg 50%
    18:00 +17°C° 0 mm 2 mps 748 mmHg 53%
    19:00 +16°C° 0 mm 2 mps 748 mmHg 55%
    20:00 +16°C° 0.1 mm 2 mps 748 mmHg 57%
    21:00 +16°C° 0.1 mm 2 mps 747 mmHg 59%
    22:00 +16°C° 0.1 mm 2 mps 747 mmHg 60%
    23:00 +16°C° 0.7 mm 2 mps 747 mmHg 64%

    23 October, Monday

    Time Temperature Precipitation Wind Pressure Humidity
    00:00 +15°C° 0.7 mm 2 mps 746 mmHg 68%
    01:00 +15°C° 0.7 mm 1 mps 746 mmHg 72%
    02:00 +14°C° 1.4 mm 2 mps 746 mmHg 75%
    03:00 +13°C° 1.4 mm 3 mps 745 mmHg 78%
    04:00 +13°C° 1.4 mm 3 mps 745 mmHg 81%
    05:00 +13°C° 1.6 mm 3 mps 745 mmHg 82%
    06:00 +12°C° 1.6 mm 3 mps 745 mmHg 82%
    07:00 +12°C° 1.6 mm 3 mps 745 mmHg 82%
    08:00 +12°C° 2 mm 3 mps 745 mmHg 84%
    09:00 +12°C° 2 mm 4 mps 745 mmHg 85%
    10:00 +12°C° 2 mm 4 mps 745 mmHg 87%
    11:00 +12°C° 1 mm 4 mps 745 mmHg 87%
    12:00 +12°C° 1 mm 4 mps 745 mmHg 87%
    13:00 +12°C° 1 mm 5 mps 745 mmHg 86%
    14:00 +12°C° 1.2 mm 5 mps 745 mmHg 87%
    15:00 +12°C° 1.2 mm 5 mps 746 mmHg 87%
    16:00 +12°C° 1.2 mm 5 mps 746 mmHg 87%
    17:00 +12°C° 1.3 mm 5 mps 746 mmHg 88%
    18:00 +12°C° 1.3 mm 5 mps 747 mmHg 88%
    19:00 +12°C° 1.3 mm 5 mps 747 mmHg 89%
    20:00 +10°C° 0.8 mm 5 mps 747 mmHg 89%
    21:00 +11°C° 0.8 mm 4 mps 748 mmHg 89%
    22:00 +11°C° 0.8 mm 4 mps 748 mmHg 89%
    23:00 +11°C° 0.6 mm 4 mps 748 mmHg 89%

    24 October, Tuesday

    Time Temperature Precipitation Wind Pressure Humidity
    00:00 +11°C° 0.6 mm 4 mps 748 mmHg 89%
    01:00 +10°C° 0.6 mm 5 mps 749 mmHg 88%
    02:00 +10°C° 0.3 mm 5 mps 749 mmHg 88%
    03:00 +10°C° 0.3 mm 5 mps 749 mmHg 87%
    04:00 +10°C° 0.3 mm 5 mps 750 mmHg 87%
    05:00 +10°C° 0.3 mm 5 mps 750 mmHg 86%
    06:00 +10°C° 0.3 mm 5 mps 751 mmHg 86%
    07:00 +10°C° 0.3 mm 5 mps 751 mmHg 86%
    08:00 +10°C° 0.5 mm 5 mps 751 mmHg 85%
    09:00 +10°C° 0.5 mm 5 mps 752 mmHg 84%
    10:00 +12°C° 0.5 mm 5 mps 752 mmHg 84%
    11:00 +12°C° 0.3 mm 5 mps 752 mmHg 82%
    12:00 +12°C° 0.3 mm 5 mps 753 mmHg 81%
    13:00 +12°C° 0.3 mm 5 mps 753 mmHg 80%
    14:00 +12°C° 0.2 mm 5 mps 753 mmHg 81%
    15:00 +12°C° 0.2 mm 5 mps 753 mmHg 81%
    16:00 +12°C° 0.2 mm 5 mps 753 mmHg 81%
    17:00 +12°C° 0.5 mm 5 mps 753 mmHg 82%
    18:00 +10°C° 0.5 mm 5 mps 754 mmHg 83%
    19:00 +10°C° 0.5 mm 5 mps 754 mmHg 84%
    20:00 +10°C° 0.7 mm 5 mps 754 mmHg 85%
    21:00 +10°C° 0.7 mm 5 mps 754 mmHg 85%
    22:00 +10°C° 0.7 mm 4 mps 755 mmHg 86%
    23:00 +10°C° 0.7 mm 4 mps 755 mmHg 86%

    25 October, Wednesday

    Time Temperature Precipitation Wind Pressure Humidity
    00:00 +10°C° 0.7 mm 4 mps 755 mmHg 87%
    01:00 +10°C° 0.7 mm 4 mps 755 mmHg 87%
    02:00 +8°C° 0.3 mm 4 mps 755 mmHg 86%
    03:00 +8°C° 0.3 mm 4 mps 755 mmHg 86%
    04:00 +8°C° 0.3 mm 4 mps 756 mmHg 86%
    05:00 +8°C° 0 mm 4 mps 756 mmHg 85%
    06:00 +10°C° 0 mm 4 mps 756 mmHg 85%
    07:00 +10°C° 0 mm 4 mps 757 mmHg 84%
    08:00 +11°C° 0 mm 4 mps 757 mmHg 80%
    09:00 +12°C° 0 mm 4 mps 758 mmHg 75%
    10:00 +13°C° 0 mm 4 mps 759 mmHg 71%
    11:00 +14°C° 0 mm 4 mps 759 mmHg 66%
    12:00 +15°C° 0 mm 4 mps 759 mmHg 62%
    13:00 +17°C° 0 mm 3 mps 759 mmHg 57%
    14:00 +16°C° 0 mm 3 mps 759 mmHg 58%
    15:00 +16°C° 0 mm 3 mps 759 mmHg 60%
    16:00 +14°C° 0 mm 3 mps 759 mmHg 62%
    17:00 +13°C° 0 mm 3 mps 759 mmHg 65%
    18:00 +12°C° 0 mm 3 mps 760 mmHg 69%
    19:00 +11°C° 0 mm 3 mps 760 mmHg 72%
    20:00 +11°C° 0 mm 3 mps 760 mmHg 72%
    21:00 +10°C° 0 mm 3 mps 761 mmHg 72%
    22:00 +10°C° 0 mm 3 mps 761 mmHg 72%
    23:00 +9°C° 0 mm 3 mps 761 mmHg 71%
    Show more